Flag for Malaysia Weather past 2 weeks in Kuching, Malaysia

Now
86 °F

Partly sunny.


Feels Like: 97 °F
Forecast: 77 / 81 °F
Wind: 1 mph from South

Location: Kuching Airport


UV Index: 3 (Moderate)

Visibility: N/A


Pressure: 29.83 "Hg

Humidity: 75%

Dew point: 77 °F

Location of KuchingLocation

Historic Weather in Kuching

°F

Kuching temperature yesterday

Maximum temperature yesterday: 91 °F (at 1:00 PM)
Minimum temperature yesterday: 75 °F (at 12:30 AM)
Average temperature yesterday: 80 °F

Past Weeks' High & Low Weather Summary

 TemperatureHumidityPressure
High93 °F (Apr 14, 3:00 PM)100% (Apr 6, 7:00 PM)29.92 "Hg (Apr 6, 7:00 PM)
Low73 °F (Apr 9, 2:00 AM)49% (Apr 17, 2:00 PM)29.71 "Hg (Apr 16, 4:30 PM)
Average80 °F85%29.83 "Hg
* Reported Apr 6 9:00 AM — Apr 21 9:30 AM, Kuching, Weather by CustomWeather, © 2014

Note: Actual official high and low records may vary slightly from our data, if they occured in-between our weather recording intervals... More about our weather records

Advertising

Historic Weather Conditions — Data for Previous 24 hours

 ConditionsComfort  
Time TempWeatherWind HumidityBarometerVisibility
9:30 AM
Apr 21
84 °FPartly sunny.2 mph79%29.83 "HgN/A
9:00 AM82 °FPartly sunny.2 mph84%29.83 "HgN/A
8:30 AM81 °FPartly sunny.1 mph89%29.83 "HgN/A
8:00 AM79 °FPartly sunny.2 mph89%29.83 "HgN/A
7:30 AM77 °FBroken clouds.2 mph94%29.83 "HgN/A
7:00 AM75 °FBroken clouds.1 mph94%29.83 "HgN/A
6:30 AM75 °FPartly cloudy.1 mph94%29.80 "HgN/A
6:00 AM75 °FPartly cloudy.1 mph94%29.80 "HgN/A
5:30 AM75 °FPartly cloudy.No wind100%29.80 "HgN/A
5:00 AM75 °FPartly cloudy.2 mph94%29.80 "HgN/A
4:30 AM75 °FPartly cloudy.2 mph94%29.80 "HgN/A
4:00 AM75 °FPassing clouds.2 mph94%29.77 "HgN/A
3:30 AM75 °FPassing clouds.No wind100%29.77 "HgN/A
3:00 AM75 °FPassing clouds.3 mph94%29.77 "HgN/A
2:30 AM75 °FPassing clouds.2 mph94%29.80 "HgN/A
2:00 AM75 °FPartly cloudy.1 mph100%29.80 "HgN/A
1:30 AM77 °FPartly cloudy.1 mph94%29.80 "HgN/A
1:00 AM77 °FPartly cloudy.5 mph89%29.80 "HgN/A
12:30 AM77 °FPartly cloudy.2 mph94%29.83 "HgN/A
12:00 AM77 °FPartly cloudy.No wind94%29.83 "HgN/A
11:30 PM
Apr 20
77 °FPartly cloudy.2 mph89%29.83 "HgN/A
11:00 PM77 °FPartly cloudy.1 mph94%29.83 "HgN/A
10:30 PM77 °FPartly cloudy.3 mph94%29.83 "HgN/A
10:00 PM77 °FPartly cloudy.3 mph94%29.83 "HgN/A
9:30 PM77 °FPartly cloudy.6 mph94%29.80 "HgN/A
9:00 PM77 °FPartly cloudy.6 mph89%29.77 "HgN/A
8:30 PM77 °FPartly cloudy.5 mph94%29.77 "HgN/A
8:00 PM77 °FPartly cloudy.6 mph94%29.77 "HgN/A
7:30 PM79 °FPassing clouds.9 mph89%29.77 "HgN/A
7:00 PM79 °FPassing clouds.8 mph89%29.77 "HgN/A
6:30 PM77 °FPartly sunny.3 mph94%29.74 "HgN/A
6:00 PM77 °FBroken clouds.3 mph94%29.74 "HgN/A
5:30 PM77 °FBroken clouds.5 mph94%29.74 "HgN/A
5:00 PM77 °FLight rain. Broken clouds.8 mph94%29.71 "Hg4 mi
4:30 PM75 °FRain showers. Partly sunny.13 mph94%29.74 "Hg1 mi
4:00 PM82 °FSprinkles. Broken clouds.14 mph74%29.74 "Hg2 mi
3:30 PM90 °FBroken clouds.9 mph67%29.71 "HgN/A
3:00 PM91 °FBroken clouds.6 mph67%29.71 "HgN/A
2:30 PM90 °FBroken clouds.7 mph71%29.74 "HgN/A
2:00 PM90 °FBroken clouds.5 mph67%29.74 "HgN/A
1:30 PM91 °FBroken clouds.6 mph63%29.77 "HgN/A
1:00 PM91 °FPartly sunny.6 mph63%29.77 "HgN/A
12:30 PM90 °FPartly sunny.5 mph67%29.80 "HgN/A
12:00 PM88 °FBroken clouds.3 mph70%29.80 "HgN/A
11:30 AM88 °FBroken clouds.6 mph75%29.83 "HgN/A
11:00 AM86 °FBroken clouds.5 mph75%29.83 "HgN/A
10:30 AM86 °FBroken clouds.3 mph75%29.83 "HgN/A
10:00 AM84 °FBroken clouds.3 mph84%29.83 "HgN/A
Weather by CustomWeather, © 2014

See weather overview